EHI
1 2 5 8 7 7 9 10 10 10 9 7 6 6 6 6 6 6 5 5 6 6 6 4 3 2 2 1 0 0 0 1 0 0 0 0 0 1 2 3 1 0 0
2 3 7 10 9 8 8 8 9 9 8 6 5 5 6 6 6 6 5 6 6 6 6 4 2 1 1 0 0 0 1 1 1 0 0 0 0 1 3 3 2 1 0
3 5 10 12 11 10 9 8 7 7 7 6 5 5 6 6 6 6 6 6 6 6 5 3 1 0 0 0 0 0 1 2 1 0 0 0 0 1 2 2 2 1 1
5 6 11 15 15 13 11 10 8 6 6 7 7 6 6 6 6 6 6 6 6 5 4 3 1 0 0 0 0 0 0 1 1 0 0 0 0 1 1 1 1 1 0
5 7 12 17 18 15 13 11 8 7 7 8 8 7 6 6 6 6 6 6 5 4 3 2 1 0 0 0 0 0 0 0 0 0 0 0 0 0 0 0 0 0 0
5 6 10 15 18 17 14 11 9 8 8 8 7 7 6 6 6 6 5 4 4 3 2 1 0 0 0 0 1 1 1 0 0 0 0 0 0 0 0 0 0 0 0
4 5 9 13 16 17 15 13 11 9 7 5 6 6 6 6 6 6 4 3 3 2 1 0 0 0 0 0 1 1 1 0 0 0 0 0 0 0 0 0 0 0 0
4 5 8 12 14 15 14 12 11 9 7 5 5 6 7 7 6 5 4 3 3 1 0 0 0 0 0 0 0 0 0 0 0 0 0 0 0 0 0 0 0 0 0
4 5 8 11 13 12 11 10 10 8 7 5 5 6 7 6 5 4 3 3 2 1 0 0 0 0 0 0 0 0 0 0 0 0 0 0 0 0 0 0 0 0 0
3 5 8 10 11 11 10 9 8 6 6 5 3 3 4 4 4 3 3 2 1 0 0 0 0 0 0 0 0 0 0 0 0 0 0 0 0 0 0 0 0 0 0
3 4 7 9 9 9 8 7 6 4 3 3 1 1 2 3 3 3 1 1 1 1 1 1 0 0 0 0 0 0 0 0 0 0 0 0 0 0 0 0 0 0 0
3 4 5 7 7 7 6 5 4 3 1 1 0 0 1 3 3 2 1 0 1 2 2 1 0 0 0 0 0 0 0 0 0 0 0 0 0 0 0 0 0 0 0
3 3 4 5 5 4 4 3 2 1 0 0 0 0 1 2 3 2 1 0 2 3 3 1 0 0 0 0 0 0 0 0 0 0 0 0 0 0 0 0 0 0 0
3 3 3 4 3 3 3 2 1 0 0 0 0 0 0 1 3 3 1 1 2 3 2 1 0 0 0 0 0 0 0 0 0 0 0 0 0 0 0 0 0 0 0
3 3 3 3 2 1 1 1 1 0 0 0 0 0 0 1 2 3 2 1 2 3 1 0 0 0 0 0 0 0 0 0 0 0 0 0 0 0 0 0 0 0 0
3 3 3 3 1 0 0 0 0 0 0 0 0 0 0 0 1 3 2 2 2 2 1 0 0 0 0 0 0 0 0 0 0 0 0 0 0 0 0 0 0 0 0
3 3 3 2 1 0 0 0 0 0 0 0 0 0 0 0 1 2 2 1 2 2 1 0 0 0 0 0 0 0 0 0 0 0 0 0 0 0 0 0 0 0 0
3 3 2 1 0 0 0 0 0 0 0 0 0 0 0 0 0 1 2 1 1 1 0 0 0 0 0 0 0 0 0 0 0 0 0 0 0 0 0 0 0 0 0
3 3 1 0 0 0 0 0 0 0 0 0 0 0 0 0 0 1 1 1 0 1 0 0 0 0 0 0 0 0 0 0 0 0 0 0 0 0 0 0 0 0 0
3 2 1 0 0 0 0 0 0 0 0 0 0 0 0 0 0 0 0 0 0 0 0 0 0 0 0 0 0 0 0 0 0 0 0 0 0 0 0 0 0 0 0
3 2 1 0 0 0 0 0 0 0 0 0 0 0 0 0 0 0 0 0 0 0 0 0 0 0 0 0 0 0 0 0 0 0 0 0 0 0 0 0 0 0 0
2 1 0 0 0 0 0 0 0 0 0 0 0 0 0 0 0 0 0 0 0 0 0 0 0 0 0 0 0 0 0 0 0 0 0 0 0 0 0 0 0 0 0
1 0 0 0 0 0 0 0 0 0 0 0 0 0 0 0 0 0 0 0 0 0 0 0 0 0 0 0 0 0 0 0 0 0 0 0 0 0 0 0 0 0 0
0 0 0 0 0 0 0 0 0 0 0 0 0 0 0 0 0 0 0 0 0 0 0 0 0 0 0 0 0 0 0 0 0 0 0 0 0 0 0 0 0 0 0
0 0 0 0 0 0 0 0 0 0 0 0 0 0 0 0 0 0 0 0 0 0 0 0 0 0 0 0 0 0 0 0 0 0 0 0 0 0 0 0 0 0 0
0 0 0 0 0 0 0 0 0 0 0 0 0 0 0 0 0 0 0 0 0 0 0 0 0 0 0 0 0 0 0 0 0 0 0 0 0 0 0 0 0 0 0
Wind_Speed
2 4 6 8 8 9 10 11 11 11 12 12 12 13 13 13 13 13 13 13 14 14 15 16 16 17 17 17 17 18 18 18 18 17 17 16 17 17 18 17 15 12 19
5 5 7 8 9 9 10 11 11 11 11 11 12 13 13 13 13 13 13 13 14 14 15 15 16 17 17 17 17 17 17 17 17 16 15 13 15 17 17 17 16 12 18
7 5 7 8 9 9 10 11 11 11 11 11 12 12 12 12 12 13 13 13 14 14 15 15 15 16 17 16 16 16 17 17 16 15 12 8 10 16 17 17 17 18 18
7 6 6 8 10 10 11 11 11 11 11 11 12 12 12 12 12 13 13 14 14 14 14 15 15 15 16 16 16 16 16 16 15 12 8 7 7 15 16 17 17 17 17
6 5 6 9 10 11 11 11 11 11 11 11 11 12 12 12 13 13 13 13 14 14 14 14 14 15 15 15 15 16 16 15 14 10 7 6 6 14 16 16 16 16 16
5 4 6 9 10 11 11 11 11 11 11 11 11 12 12 12 13 13 13 13 13 13 14 14 14 14 14 14 15 16 15 14 11 7 6 6 6 13 15 15 15 15 16
5 4 6 9 10 10 10 10 10 11 11 11 11 12 12 12 13 13 13 12 13 13 13 13 14 14 14 14 15 15 15 13 8 6 5 5 7 14 15 15 15 15 15
6 5 5 8 10 10 10 10 10 10 10 10 11 12 12 12 12 12 12 12 12 13 13 13 13 14 14 14 14 14 13 11 9 7 5 5 10 13 14 14 14 15 15
6 5 4 4 6 8 9 9 9 10 10 10 10 11 11 11 11 12 12 12 12 12 12 12 13 13 13 13 14 14 13 11 6 4 5 4 10 13 13 13 13 14 14
5 5 4 4 4 4 5 8 9 9 9 10 10 10 10 10 10 11 10 11 11 12 12 12 13 13 13 12 13 13 12 9 5 5 3 5 11 12 13 12 13 13 13
4 4 4 4 4 4 4 6 8 8 9 9 9 10 9 6 6 6 7 9 10 11 11 12 12 12 11 11 12 12 9 4 4 3 3 8 11 12 12 12 12 12 13
3 3 3 3 3 3 4 4 4 4 5 5 5 6 5 4 4 6 8 9 9 9 10 11 11 10 8 5 7 8 4 4 4 3 3 8 10 11 11 11 11 11 11
4 3 3 3 3 3 3 3 3 3 3 4 5 5 5 4 4 4 3 4 5 6 5 6 6 4 4 4 4 4 4 4 2 2 3 8 9 10 10 10 10 10 10
3 3 3 3 3 3 3 3 3 3 3 3 3 5 4 3 3 3 2 2 2 2 3 3 3 4 5 5 5 5 4 3 2 2 2 7 8 9 10 10 10 9 9
3 2 2 3 3 3 3 3 4 3 3 4 3 3 4 4 4 3 2 2 2 2 3 3 3 4 4 4 4 5 4 4 3 3 2 6 7 8 9 9 8 8 9
3 2 2 3 3 3 3 3 4 3 4 4 3 3 4 4 4 4 3 3 2 2 2 3 4 4 3 3 4 4 4 3 3 3 3 3 6 7 7 7 7 7 7
3 2 2 3 2 3 3 3 3 3 4 4 3 4 4 4 5 5 4 3 2 2 3 3 4 4 3 4 4 3 3 3 3 3 3 2 3 5 6 7 7 6 7
3 2 2 2 2 2 3 2 2 3 4 4 4 4 4 4 5 5 4 3 3 3 3 3 3 4 3 3 3 2 2 2 3 3 3 3 2 2 4 6 5 5 6
3 3 2 2 3 2 2 3 2 2 3 3 3 3 4 4 4 5 4 3 4 3 3 3 3 3 4 3 3 2 2 2 2 2 3 3 3 3 2 4 5 4 4
3 3 3 2 2 3 2 2 2 1 2 2 3 3 4 4 4 4 4 4 4 4 3 3 4 3 3 3 3 3 2 2 1 2 2 2 2 2 2 2 2 2 3
3 4 3 3 3 3 3 2 2 2 2 2 2 3 4 4 4 4 4 4 4 4 4 4 4 4 3 3 3 2 2 2 1 1 1 1 2 2 2 2 1 1 1
4 4 4 4 3 3 2 2 2 1 1 2 2 3 3 4 4 4 5 5 4 4 5 4 4 3 2 2 3 3 1 1 1 1 0 1 1 1 1 1 1 1 1
5 5 5 5 4 3 3 2 2 2 1 0 1 2 3 3 3 4 4 5 5 5 5 5 5 5 4 2 2 3 3 3 1 1 1 0 1 1 1 1 1 0 1
6 5 5 5 5 4 4 4 4 3 2 2 2 2 2 3 4 3 4 4 5 4 5 5 4 3 5 4 2 1 2 3 3 1 1 1 1 1 1 1 1 1 1
4 4 4 5 5 5 5 5 5 3 2 1 1 2 2 2 3 3 4 4 4 5 5 5 4 4 4 4 3 2 1 1 2 3 3 2 1 2 2 2 2 1 1
2 3 4 4 5 5 5 5 5 5 4 3 2 3 2 1 2 3 3 3 3 3 5 6 5 5 4 4 3 3 3 3 3 3 3 3 3 2 2 2 3 3 2
Wind_Direction
164 167 145 125 119 116 113 109 105 102 101 99 97 96 93 91 90 88 88 87 87 88 89 90 91 90 89 88 88 86 84 82 81 79 77 79 82 82 81 77 75 75 79
155 158 142 130 125 119 116 112 105 102 101 101 101 99 96 93 90 88 88 88 88 89 90 91 93 93 91 89 88 87 85 83 80 76 72 73 78 82 82 80 78 80 80
138 146 143 132 127 123 114 112 109 105 102 101 103 101 98 96 93 90 89 88 88 90 91 92 95 96 93 91 89 89 88 85 81 73 67 66 76 81 83 82 81 80 80
137 138 137 129 127 122 118 111 110 109 105 102 102 103 101 99 96 93 91 89 88 88 89 91 94 96 96 94 91 90 89 85 79 72 66 63 74 82 82 82 82 82 81
128 129 136 127 126 124 121 116 109 110 108 105 103 104 103 100 98 95 92 90 88 87 88 90 93 96 96 96 94 92 89 84 75 68 64 62 70 83 82 82 82 82 81
123 124 135 128 125 123 123 120 117 111 111 109 107 105 104 102 100 97 94 92 90 89 89 91 94 95 95 96 96 94 90 83 72 65 63 65 72 84 84 83 82 82 83
122 119 132 129 127 124 122 121 118 111 110 113 110 107 104 104 103 100 96 95 94 92 91 91 94 95 95 95 96 95 90 82 75 69 66 70 81 87 87 86 85 84 83
117 114 118 130 128 126 124 121 118 116 110 111 112 110 107 106 105 102 99 98 97 97 95 92 92 94 94 92 93 92 86 84 80 76 71 75 88 89 89 87 85 84 84
106 102 101 113 126 128 125 122 118 115 110 106 109 109 106 104 103 103 101 100 100 100 97 95 93 93 93 93 90 87 83 77 74 72 78 79 89 92 91 89 88 86 85
98 98 96 94 106 120 127 120 113 111 107 104 102 101 100 98 98 99 100 101 101 101 98 96 95 91 89 90 87 84 79 73 69 64 65 87 91 95 95 93 90 89 87
93 97 100 99 98 108 115 115 112 110 106 102 99 97 92 89 91 90 93 98 102 102 98 94 95 89 82 84 84 77 72 63 66 61 66 91 94 95 97 96 94 90 89
135 114 100 105 110 115 117 114 112 102 101 93 94 98 98 96 92 88 83 88 94 95 96 94 91 84 73 71 75 72 67 63 59 54 77 91 97 96 98 98 96 93 90
154 134 116 111 116 121 122 119 112 109 106 99 99 102 107 102 95 82 78 74 79 81 80 84 79 73 73 71 73 72 68 67 55 43 74 93 100 101 99 98 97 97 93
147 147 138 125 118 128 135 135 131 126 122 118 117 113 114 115 107 100 91 81 79 86 89 83 84 83 82 77 78 78 69 64 57 44 65 90 101 103 101 99 96 99 98
145 151 155 143 139 138 140 145 135 138 136 133 128 124 124 129 128 118 110 101 96 99 101 99 95 95 90 84 79 84 79 69 59 49 49 78 91 99 102 102 100 103 101
151 151 162 151 155 148 142 149 148 148 146 141 139 138 134 138 139 132 120 114 107 108 109 110 110 104 95 90 82 80 87 80 68 57 45 59 76 92 100 104 103 107 110
168 151 145 141 135 148 149 153 147 153 151 149 148 145 142 142 146 139 132 128 126 116 111 108 104 100 95 89 82 72 82 83 82 72 59 49 51 67 90 98 106 108 111
151 147 145 125 120 138 147 149 154 157 154 154 152 149 146 142 147 140 137 137 133 121 115 118 116 108 101 95 87 70 68 76 77 78 73 65 56 48 59 77 94 105 109
156 156 160 144 143 144 146 146 148 158 154 156 153 150 145 139 147 145 141 140 136 125 119 126 118 123 121 107 97 74 54 68 72 75 77 72 67 61 48 49 58 79 98
162 161 166 153 146 136 125 124 126 125 152 150 156 151 146 149 143 148 143 143 140 134 126 127 127 115 123 121 100 70 39 33 59 77 85 75 67 69 65 52 38 36 64
160 167 173 163 155 146 150 161 162 176 176 162 158 151 152 150 150 147 150 150 150 150 150 141 133 129 121 119 103 74 22 16 45 58 74 90 73 67 72 60 44 41 25
181 183 179 175 168 164 167 175 174 168 180 178 166 151 156 158 159 154 160 163 161 152 148 148 140 136 145 149 134 124 79 348 340 3 33 115 114 88 82 71 69 74 54
191 193 189 184 175 166 145 128 117 98 72 93 174 177 178 170 167 169 163 167 167 163 167 171 163 153 162 183 164 147 157 195 226 287 279 183 148 140 164 158 121 108 112
204 195 189 184 177 168 156 156 155 167 187 211 203 204 196 177 175 169 168 176 176 171 174 181 178 168 163 173 189 194 172 153 164 207 261 253 236 210 209 206 194 192 158
203 193 190 183 182 174 170 169 169 177 189 174 181 176 194 190 185 176 176 179 185 183 183 183 179 175 177 177 176 171 156 156 154 169 209 227 249 236 224 216 208 208 202
198 187 184 185 188 183 178 177 177 179 172 170 193 188 198 201 199 190 190 188 189 191 189 190 187 185 188 186 186 181 174 174 182 184 191 205 225 240 242 227 213 218 216